Location: Kumla
(59.1265°N, 15.1401°E)
Time: 16:40:11
(UTC+01:00)

A-11 Canister half - Pass Details

Date: 12 December 2023
Orbit: 1512 x 1687 km, 47.2° (Epoch: 25 February)

Event Time Altitude Azimuth Distance (km) Brightness Sun altitude
Rises 04:24:13 0° 278° (W) 4,814 - -30.9°
Reaches altitude 10° 04:28:04 10° 265° (W) 3,855 - -30.5°
Maximum altitude 04:35:15 24° 218° (SW) 2,954 - -29.5°
Exits shadow 04:36:41 23° 206° (SSW) 3,003 10.2 -29.4°
Drops below altitude 10° 04:42:35 10° 170° (S) 3,929 11.2 -28.6°
Sets 04:46:35 0° 157° (SSE) 4,927 11.9 -28.1°
